Weather History for KCON - April, 2013

Change the Weather History Date:

Tuesday, April 23, 2013

  Actual Average Record
Temperature  
Mean Temperature 35 °F 48 °F  
Max Temperature 41 °F 61 °F 88 °F (1885)
Min Temperature 29 °F 35 °F 20 °F (1975)
Degree Days  
Heating Degree Days 30 17  
Month to date heating degree days 492 491  
Since 1 July heating degree days 6409 6738  
Cooling Degree Days 0 0  
Month to date cooling degree days 0 0  
Year to date cooling degree days 0 0  
Moisture  
Dew Point 34 °F    
Average Humidity 90    
Maximum Humidity 100    
Minimum Humidity 79    
Precipitation  
Precipitation 0.00 in 0.11 in 1.55 in (1977)
Month to date precipitation 1.86 2.61  
Year to date precipitation 8.67 11.20  
Snow  
Snow 0.00 in 0.00 in 3.10 in (1956)
Month to date snowfall 0.2 2.6  
Since 1 July snowfall 83.4 61.2  
Snow Depth 0.00 in    
Sea Level Pressure  
Sea Level Pressure 30.44 in    
Wind  
Wind Speed 6 mph (NNE)    
Max Wind Speed 12 mph    
Max Gust Speed 15 mph    
Visibility 9 miles    
Events      
T = Trace of Precipitation, MM = Missing Value Source: NWS Daily Summary

Daily Weather History Graph

Daily Weather History Graph

Search for Another Location

Airport or City:

Trip Planner

Search our weather history database for the weather conditions in past years. The results will help you decide how hot, cold, wet, or windy it might be!

Date:

Astronomy

Apr. 23, 2013 Rise Set
Actual Time 5:50 AM EDT 7:38 PM EDT
Civil Twilight 5:20 AM EDT 8:08 PM EDT
Nautical Twilight 4:43 AM EDT 8:46 PM EDT
Astronomical Twilight 4:03 AM EDT 9:26 PM EDT
Moon 5:27 PM EDT (4/23) 4:20 AM EDT (4/23)
Length of Visible Light 14h 48m
Length of Day
13h 47m
Waxing Gibbous, 94% of the Moon is Illuminated
Apr 23
Waxing Gibbous
Apr 25
Full
May 2
Last Quarter
May 9
New
May 18
First Quarter

Hourly Weather History & Observations

Time (EDT) Temp. Windchill Dew Point Humidity Pressure Visibility Wind Dir Wind Speed Gust Speed Precip Events Conditions
12:51 AM 30.0 °F 26.5 °F 27.0 °F 88% 30.61 in 10.0 mi NNE 3.5 mph - N/A   Clear
1:51 AM 30.0 °F 26.5 °F 28.0 °F 92% 30.60 in 10.0 mi NNE 3.5 mph - N/A   Clear
2:51 AM 28.9 °F 23.9 °F 27.0 °F 92% 30.58 in 10.0 mi North 4.6 mph - N/A   Clear
3:47 AM 30.2 °F 24.3 °F 28.4 °F 93% 30.55 in 10.0 mi North 5.8 mph - N/A   Mostly Cloudy
3:51 AM 30.9 °F 26.2 °F 28.9 °F 92% 30.56 in 10.0 mi North 4.6 mph - N/A   Mostly Cloudy
4:51 AM 32.0 °F 27.5 °F 28.9 °F 88% 30.55 in 10.0 mi NNE 4.6 mph - N/A   Overcast
5:51 AM 33.1 °F 27.7 °F 30.0 °F 89% 30.54 in 10.0 mi North 5.8 mph - N/A   Overcast
6:51 AM 34.0 °F 29.8 °F 30.0 °F 85% 30.54 in 10.0 mi NNE 4.6 mph - N/A   Overcast
7:51 AM 36.0 °F 33.3 °F 30.0 °F 79% 30.54 in 10.0 mi NE 3.5 mph - N/A   Overcast
8:51 AM 36.0 °F 31.1 °F 30.9 °F 82% 30.53 in 6.0 mi ENE 5.8 mph - N/A   Haze
9:07 AM 35.6 °F 29.2 °F 32.0 °F 87% 30.51 in 2.5 mi NNE 8.1 mph - N/A   Overcast
9:36 AM 35.6 °F 30.7 °F 33.8 °F 93% 30.50 in 3.0 mi North 5.8 mph - N/A   Overcast
9:49 AM 35.6 °F 29.9 °F 33.8 °F 93% 30.50 in 2.5 mi NNE 6.9 mph - N/A   Overcast
9:51 AM 36.0 °F 31.1 °F 34.0 °F 93% 30.51 in 2.5 mi North 5.8 mph - N/A   Overcast
10:19 AM 35.6 °F 28.0 °F 33.8 °F 93% 30.49 in 5.0 mi NNE 10.4 mph - N/A   Overcast
10:51 AM 37.0 °F 31.6 °F 34.0 °F 89% 30.50 in 10.0 mi NE 6.9 mph - N/A   Overcast
11:51 AM 37.9 °F 32.7 °F 34.0 °F 86% 30.48 in 10.0 mi NE 6.9 mph - N/A   Overcast
12:51 PM 39.0 °F 34.8 °F 34.0 °F 82% 30.45 in 10.0 mi ENE 5.8 mph - N/A   Overcast
1:51 PM 39.9 °F 35.8 °F 35.1 °F 83% 30.43 in 10.0 mi NE 5.8 mph - N/A   Overcast
2:51 PM 39.9 °F 33.9 °F 36.0 °F 86% 30.40 in 7.0 mi NE 9.2 mph - N/A   Overcast
3:51 PM 39.9 °F 34.5 °F 37.0 °F 89% 30.38 in 9.0 mi NNE 8.1 mph - N/A   Overcast
4:51 PM 39.9 °F 33.9 °F 37.0 °F 89% 30.36 in 9.0 mi NE 9.2 mph - N/A   Overcast
5:51 PM 39.9 °F 34.5 °F 37.0 °F 89% 30.34 in 10.0 mi NE 8.1 mph - N/A   Overcast
6:51 PM 39.9 °F 35.1 °F 37.0 °F 89% 30.32 in 10.0 mi ENE 6.9 mph - N/A   Overcast
7:19 PM 39.2 °F 35.0 °F 37.4 °F 93% 30.30 in 10.0 mi NE 5.8 mph - N/A   Overcast
7:51 PM 39.9 °F 34.5 °F 37.0 °F 89% 30.30 in 10.0 mi NE 8.1 mph - N/A   Overcast
8:51 PM 39.9 °F 35.1 °F 37.0 °F 89% 30.29 in 10.0 mi North 6.9 mph - N/A   Overcast
9:51 PM 39.9 °F 36.7 °F 39.0 °F 97% 30.26 in 3.0 mi North 4.6 mph - N/A   Overcast
10:51 PM 39.9 °F 34.5 °F 39.0 °F 97% 30.25 in 10.0 mi NW 8.1 mph - N/A   Overcast
11:51 PM 39.9 °F 35.1 °F 39.0 °F 97% 30.18 in 10.0 mi North 6.9 mph - N/A   Overcast